Hourly Data Report for October 28, 2016

All times are specified in Local Standard Time (LST). Add 1 hour to adjust for Daylight Saving Time where and when it is observed.

RANKIN INLET A
NUNAVUT

62°48'38.000" N
92°06'53.000" W
32.30 m
2303405
71083
YRT

Download Data

Hourly Data (October 2016)
Hourly Data Report for October 28, 2016
Temp Definition
°C
Dew Point Temp Definition
°C
Rel Hum Definition
%
Wind Dir Definition
10's deg

Wind Spd Definition
km/h
Visibility Definition
km
Stn Press Definition
kPa
Hmdx Definition


Wind Chill Definition


Weather Definition


TIME
00:00 Legend Double Dagger -12.5 -14.0 89 36 29 24.1 101.16   -23 Snow
01:00 Legend Double Dagger -12.8 -14.4 88 1 30 16.1 101.20   -23 Snow
02:00 Legend Double Dagger -15.6 -17.3 87 36 30 12.9 101.24   -27 Snow
03:00 Legend Double Dagger -16.4 -18.4 85 36 26 24.1 101.31   -27 Clear
04:00 Legend Double Dagger -19.7 -21.9 83 36 27 16.1 101.35   -32 LegendNANA
05:00 Legend Double Dagger -20.0 -22.3 82 35 27 16.1 101.38   -32 LegendNANA
06:00 Legend Double Dagger -20.5 -22.8 82 35 27 12.9 101.40   -33 Clear
07:00 Legend Double Dagger -20.2 -22.5 82 36 31 6.4 101.38   -33 Ice Crystals
08:00 Legend Double Dagger -20.9 -23.4 81 35 28 6.4 101.38   -33 Ice Crystals
09:00 Legend Double Dagger -21.3 -23.8 81 32 11 4.8 101.41   -29 Ice Crystals
10:00 Legend Double Dagger -20.3 -22.6 82 33 27 6.4 101.39   -32 Ice Crystals,Blowing Snow
11:00 Legend Double Dagger -19.8 -22.1 82 33 23 6.4 101.40   -31 Ice Crystals
12:00 Legend Double Dagger -19.4 -21.7 82 33 23 8.1 101.39   -30 Ice Crystals
13:00 Legend Double Dagger -19.1 -21.4 82 33 22 8.1 101.37   -30 Ice Crystals
14:00 Legend Double Dagger -18.1 -20.3 83 32 24 16.1 101.32   -29 Ice Crystals
15:00 Legend Double Dagger -17.8 -20.2 82 32 20 16.1 101.27   -28 Ice Crystals
16:00 Legend Double Dagger -17.1 -19.3 83 32 17 16.1 101.24   -26 Ice Crystals
17:00 Legend Double Dagger -16.9 -19.0 84 32 17 8.1 101.18   -26 Snow
18:00 Legend Double Dagger -17.0 -19.1 84 35 9 9.7 101.09   -23 Snow
19:00 Legend Double Dagger -16.2 -18.2 85 33 4 6.4 100.98   -19 Snow
20:00 Legend Double Dagger -15.4 -17.4 85 1 5 6.4 100.89   -19 Moderate Snow
21:00 Legend Double Dagger -15.3 -17.1 86 1 6 12.9 100.77   -20 Snow
22:00 Legend Double Dagger -13.8 -15.5 87 4 4 16.1 100.62   -17 Snow
23:00 Legend Double Dagger -12.6 -14.2 88 5 8 12.9 100.49   -18 Snow

Notes on Data Quality.

Legend

  • E = Estimated
  • M = Missing
  • NA = Not Available
  • ‡ = Partner data that is not subject to review by the National Climate Archives
Date modified: